C6009 KMOB-KMOB

Flight info

Callsign C6009
Flight time 0h 1m
Altitude 200
Route KMOB KMOB
Aircraft H60/M-SDFGRY/C

Departure

Time 2026-04-12 16:36
Airport Mobile Regional Airport (KMOB)

Arrival

Time 2026-04-12 16:37
Airport Mobile Regional Airport (KMOB)
Time Latitude Longitude Altitude Speed Heading
2026-04-12 14:03 30.69350 -88.24237 218 ft 0 kts 179°
2026-04-12 14:21 30.69342 -88.24237 218 ft 3 kts 178°
2026-04-12 14:21 30.69316 -88.24245 218 ft 9 kts 226°
2026-04-12 14:21 30.69296 -88.24279 217 ft 2 kts 230°
2026-04-12 14:22 30.69275 -88.24293 217 ft 1 kts 143°
2026-04-12 14:24 30.69276 -88.24295 229 ft 1 kts 135°
2026-04-12 14:25 30.69279 -88.24296 234 ft 1 kts 136°
2026-04-12 14:25 30.69198 -88.24244 299 ft 39 kts 140°
2026-04-12 14:25 30.68848 -88.23997 543 ft 88 kts 155°
2026-04-12 14:25 30.68267 -88.23704 529 ft 94 kts 155°
2026-04-12 14:26 30.67664 -88.23413 565 ft 94 kts 155°
2026-04-12 14:26 30.67097 -88.23129 572 ft 86 kts 155°
2026-04-12 14:26 30.66512 -88.22859 570 ft 90 kts 155°
2026-04-12 14:26 30.65922 -88.22601 575 ft 91 kts 155°
2026-04-12 14:27 30.65320 -88.22342 574 ft 91 kts 155°
2026-04-12 14:27 30.64717 -88.22090 564 ft 93 kts 155°
2026-04-12 14:27 30.64106 -88.21822 567 ft 91 kts 155°
2026-04-12 14:27 30.63512 -88.21557 571 ft 89 kts 155°
2026-04-12 14:28 30.62944 -88.21304 566 ft 90 kts 155°
2026-04-12 14:28 30.62352 -88.21033 573 ft 90 kts 155°
2026-04-12 14:28 30.61770 -88.20768 567 ft 90 kts 155°
2026-04-12 14:28 30.61179 -88.20491 571 ft 91 kts 155°
2026-04-12 14:29 30.60591 -88.20215 569 ft 90 kts 155°
2026-04-12 14:29 30.59998 -88.19939 566 ft 93 kts 155°
2026-04-12 14:29 30.59404 -88.19663 561 ft 91 kts 155°
2026-04-12 14:29 30.58818 -88.19390 567 ft 93 kts 155°
2026-04-12 14:30 30.58228 -88.19128 558 ft 90 kts 155°
2026-04-12 14:30 30.57642 -88.18859 559 ft 89 kts 155°
2026-04-12 14:30 30.57073 -88.18615 561 ft 86 kts 155°
2026-04-12 14:30 30.56494 -88.18368 563 ft 91 kts 155°
2026-04-12 14:31 30.55912 -88.18116 565 ft 90 kts 155°
2026-04-12 14:31 30.55346 -88.17812 565 ft 92 kts 155°
2026-04-12 14:31 30.54758 -88.17503 567 ft 94 kts 155°
2026-04-12 14:31 30.54172 -88.17210 560 ft 91 kts 155°
2026-04-12 14:32 30.53578 -88.16914 573 ft 93 kts 155°
2026-04-12 14:32 30.52989 -88.16623 575 ft 89 kts 155°
2026-04-12 14:32 30.52399 -88.16328 566 ft 89 kts 155°
2026-04-12 14:32 30.51813 -88.16030 557 ft 93 kts 155°
2026-04-12 14:33 30.51221 -88.15721 556 ft 91 kts 155°
2026-04-12 14:33 30.50639 -88.15419 567 ft 93 kts 155°
2026-04-12 14:33 30.50056 -88.15136 569 ft 88 kts 155°
2026-04-12 14:33 30.49434 -88.14867 552 ft 101 kts 161°
2026-04-12 14:34 30.48795 -88.14626 554 ft 96 kts 160°
2026-04-12 14:34 30.48169 -88.14375 569 ft 96 kts 160°
2026-04-12 14:34 30.47542 -88.14129 568 ft 93 kts 160°
2026-04-12 14:34 30.46928 -88.13906 565 ft 91 kts 160°
2026-04-12 14:35 30.46299 -88.13669 564 ft 93 kts 160°
2026-04-12 14:35 30.45687 -88.13422 559 ft 92 kts 160°
2026-04-12 14:35 30.45083 -88.13187 553 ft 95 kts 160°
2026-04-12 14:35 30.44481 -88.12954 548 ft 87 kts 160°
2026-04-12 14:36 30.43878 -88.12719 546 ft 90 kts 160°
2026-04-12 14:36 30.43272 -88.12504 547 ft 90 kts 160°
2026-04-12 14:36 30.42668 -88.12282 567 ft 91 kts 160°
2026-04-12 14:36 30.42075 -88.12103 570 ft 89 kts 160°
2026-04-12 14:37 30.41479 -88.11908 561 ft 87 kts 160°
2026-04-12 14:37 30.40881 -88.11716 560 ft 92 kts 160°
2026-04-12 14:37 30.40293 -88.11504 570 ft 91 kts 160°
2026-04-12 14:37 30.39688 -88.11279 576 ft 92 kts 160°
2026-04-12 14:38 30.39088 -88.11059 563 ft 92 kts 160°
2026-04-12 14:38 30.38475 -88.10834 566 ft 91 kts 160°
2026-04-12 14:38 30.37892 -88.10636 574 ft 89 kts 160°
2026-04-12 14:38 30.37308 -88.10403 567 ft 92 kts 160°
2026-04-12 14:39 30.36710 -88.10183 559 ft 89 kts 160°
2026-04-12 14:39 30.36128 -88.09990 559 ft 86 kts 160°
2026-04-12 14:39 30.35541 -88.09825 562 ft 87 kts 160°
2026-04-12 14:39 30.34982 -88.09660 567 ft 87 kts 160°
2026-04-12 14:40 30.34380 -88.09524 566 ft 87 kts 161°
2026-04-12 14:40 30.33829 -88.09345 563 ft 82 kts 160°
2026-04-12 14:40 30.33245 -88.09183 565 ft 89 kts 160°
2026-04-12 14:40 30.32636 -88.08978 564 ft 91 kts 160°
2026-04-12 14:41 30.32024 -88.08761 567 ft 93 kts 160°
2026-04-12 14:41 30.31386 -88.08545 563 ft 95 kts 160°
2026-04-12 14:41 30.30980 -88.08407 569 ft 89 kts 160°
2026-04-12 14:41 30.30158 -88.08128 568 ft 94 kts 160°
2026-04-12 14:42 30.29755 -88.07988 563 ft 89 kts 160°
2026-04-12 14:42 30.29141 -88.07774 565 ft 92 kts 160°
2026-04-12 14:42 30.28528 -88.07550 566 ft 91 kts 160°
2026-04-12 14:42 30.27909 -88.07320 562 ft 95 kts 160°
2026-04-12 14:43 30.27278 -88.07114 565 ft 94 kts 160°
2026-04-12 14:43 30.26681 -88.06905 575 ft 83 kts 163°
2026-04-12 14:43 30.26058 -88.06784 569 ft 92 kts 166°
2026-04-12 14:43 30.25450 -88.06665 560 ft 87 kts 166°
2026-04-12 14:44 30.24840 -88.06567 560 ft 88 kts 166°
2026-04-12 14:44 30.24222 -88.06494 561 ft 90 kts 166°
2026-04-12 14:44 30.23603 -88.06377 562 ft 90 kts 166°
2026-04-12 14:44 30.22959 -88.06265 560 ft 93 kts 168°
2026-04-12 14:45 30.22287 -88.06246 558 ft 95 kts 172°
2026-04-12 14:45 30.21647 -88.06293 551 ft 95 kts 181°
2026-04-12 14:45 30.21000 -88.06381 463 ft 92 kts 181°
2026-04-12 14:45 30.20346 -88.06466 457 ft 95 kts 181°
2026-04-12 14:46 30.19700 -88.06561 505 ft 92 kts 181°
2026-04-12 14:46 30.19038 -88.06611 420 ft 97 kts 181°
2026-04-12 14:46 30.18355 -88.06657 419 ft 98 kts 181°
2026-04-12 14:46 30.17678 -88.06748 402 ft 100 kts 181°
2026-04-12 14:47 30.16982 -88.06814 394 ft 98 kts 181°
2026-04-12 14:47 30.16388 -88.06600 402 ft 87 kts 134°
2026-04-12 14:47 30.16328 -88.05986 411 ft 80 kts 71°
2026-04-12 14:47 30.16851 -88.05898 400 ft 93 kts 342°
2026-04-12 14:48 30.17299 -88.06565 395 ft 124 kts 303°
2026-04-12 14:48 30.17497 -88.07611 407 ft 140 kts 270°
2026-04-12 14:48 30.17501 -88.08644 405 ft 119 kts 270°
2026-04-12 14:48 30.17507 -88.09574 401 ft 111 kts 270°
2026-04-12 14:49 30.17495 -88.10440 394 ft 109 kts 270°
2026-04-12 14:49 30.17498 -88.11316 401 ft 112 kts 270°
2026-04-12 14:49 30.17514 -88.12241 401 ft 116 kts 270°
2026-04-12 14:49 30.17512 -88.13154 397 ft 111 kts 270°
2026-04-12 14:50 30.17527 -88.14020 408 ft 106 kts 270°
2026-04-12 14:50 30.17528 -88.14879 408 ft 104 kts 270°
2026-04-12 14:50 30.17530 -88.15753 395 ft 111 kts 270°
2026-04-12 14:50 30.17565 -88.16620 398 ft 113 kts 270°
2026-04-12 14:51 30.17594 -88.17498 403 ft 104 kts 270°
2026-04-12 14:51 30.17610 -88.18375 400 ft 109 kts 270°
2026-04-12 14:51 30.17623 -88.19251 401 ft 109 kts 270°
2026-04-12 14:51 30.17625 -88.20140 405 ft 113 kts 270°
2026-04-12 14:52 30.17621 -88.21055 398 ft 116 kts 270°
2026-04-12 14:52 30.17624 -88.21963 396 ft 109 kts 270°
2026-04-12 14:52 30.17619 -88.22822 400 ft 107 kts 270°
2026-04-12 14:52 30.17595 -88.23692 402 ft 115 kts 270°
2026-04-12 14:53 30.17587 -88.24618 398 ft 114 kts 270°
2026-04-12 14:53 30.17610 -88.25546 397 ft 115 kts 270°
2026-04-12 14:53 30.17505 -88.26348 395 ft 85 kts 232°
2026-04-12 14:53 30.16987 -88.26444 393 ft 91 kts 181°
2026-04-12 14:54 30.16295 -88.26537 398 ft 91 kts 174°
2026-04-12 14:54 30.15961 -88.26168 387 ft 69 kts 123°
2026-04-12 14:54 30.16029 -88.25604 388 ft 88 kts 100°
2026-04-12 14:54 30.15954 -88.24760 391 ft 108 kts 96°
2026-04-12 14:55 30.15921 -88.23986 397 ft 88 kts 96°
2026-04-12 14:55 30.15882 -88.23299 394 ft 89 kts 96°
2026-04-12 14:55 30.15835 -88.22594 394 ft 87 kts 96°
2026-04-12 14:55 30.15818 -88.21896 408 ft 90 kts 92°
2026-04-12 14:56 30.15841 -88.21187 401 ft 86 kts 92°
2026-04-12 14:56 30.15865 -88.20496 398 ft 87 kts 92°
2026-04-12 14:56 30.15858 -88.19812 399 ft 82 kts 92°
2026-04-12 14:56 30.15850 -88.19096 399 ft 89 kts 94°
2026-04-12 14:57 30.15860 -88.18388 402 ft 93 kts 92°
2026-04-12 14:57 30.15876 -88.17669 395 ft 84 kts 92°
2026-04-12 14:57 30.15878 -88.17004 405 ft 88 kts 92°
2026-04-12 14:57 30.15864 -88.16307 400 ft 84 kts 94°
2026-04-12 14:58 30.15847 -88.15608 403 ft 88 kts 94°
2026-04-12 14:58 30.15835 -88.14890 400 ft 88 kts 94°
2026-04-12 14:58 30.15831 -88.14207 399 ft 87 kts 94°
2026-04-12 14:58 30.15839 -88.13473 404 ft 88 kts 94°
2026-04-12 14:59 30.15853 -88.12765 405 ft 91 kts 94°
2026-04-12 14:59 30.15851 -88.12028 410 ft 88 kts 94°
2026-04-12 14:59 30.15825 -88.11273 403 ft 96 kts 94°
2026-04-12 14:59 30.15809 -88.10529 401 ft 94 kts 94°
2026-04-12 15:00 30.15793 -88.09091 398 ft 85 kts 94°
2026-04-12 15:00 30.15770 -88.08388 408 ft 89 kts 94°
2026-04-12 15:00 30.15761 -88.07675 402 ft 94 kts 94°
2026-04-12 15:01 30.15673 -88.06993 397 ft 77 kts 118°
2026-04-12 15:01 30.15130 -88.06918 419 ft 97 kts 177°
2026-04-12 15:01 30.14382 -88.06966 406 ft 103 kts 179°
2026-04-12 15:01 30.13811 -88.07217 394 ft 87 kts 246°
2026-04-12 15:02 30.13884 -88.08089 367 ft 139 kts 272°
2026-04-12 15:02 30.13943 -88.09152 387 ft 129 kts 272°
2026-04-12 15:02 30.14012 -88.10147 402 ft 123 kts 272°
2026-04-12 15:02 30.14073 -88.11112 412 ft 120 kts 272°
2026-04-12 15:03 30.14118 -88.12073 410 ft 119 kts 272°
2026-04-12 15:03 30.14165 -88.13025 404 ft 118 kts 272°
2026-04-12 15:03 30.14188 -88.13972 403 ft 121 kts 272°
2026-04-12 15:03 30.14204 -88.14941 410 ft 120 kts 269°
2026-04-12 15:04 30.14197 -88.15894 408 ft 117 kts 269°
2026-04-12 15:04 30.14165 -88.16835 407 ft 117 kts 269°
2026-04-12 15:04 30.14172 -88.17778 401 ft 117 kts 270°
2026-04-12 15:04 30.14182 -88.18721 399 ft 118 kts 270°
2026-04-12 15:05 30.14183 -88.19670 398 ft 118 kts 270°
2026-04-12 15:05 30.14165 -88.20617 399 ft 118 kts 270°
2026-04-12 15:05 30.14143 -88.21566 401 ft 119 kts 269°
2026-04-12 15:05 30.14153 -88.22522 399 ft 119 kts 270°
2026-04-12 15:06 30.14166 -88.23477 398 ft 119 kts 270°
2026-04-12 15:06 30.14183 -88.24431 399 ft 119 kts 270°
2026-04-12 15:06 30.14161 -88.25386 400 ft 120 kts 270°
2026-04-12 15:06 30.14078 -88.26324 410 ft 110 kts 249°
2026-04-12 15:07 30.13554 -88.26586 411 ft 77 kts 174°
2026-04-12 15:07 30.12880 -88.26578 405 ft 106 kts 174°
2026-04-12 15:07 30.12385 -88.26283 411 ft 70 kts 120°
2026-04-12 15:07 30.12480 -88.25687 383 ft 99 kts 90°
2026-04-12 15:08 30.12480 -88.24879 387 ft 98 kts 94°
2026-04-12 15:08 30.12481 -88.24094 393 ft 98 kts 94°
2026-04-12 15:08 30.12473 -88.23314 403 ft 97 kts 94°
2026-04-12 15:08 30.12432 -88.22536 401 ft 96 kts 94°
2026-04-12 15:09 30.12388 -88.21766 400 ft 96 kts 94°
2026-04-12 15:09 30.12347 -88.21000 397 ft 96 kts 94°
2026-04-12 15:09 30.12324 -88.20232 398 ft 96 kts 94°
2026-04-12 15:09 30.12332 -88.19464 398 ft 95 kts 94°
2026-04-12 15:10 30.12350 -88.18722 391 ft 92 kts 93°
2026-04-12 15:10 30.12371 -88.17990 397 ft 91 kts 93°
2026-04-12 15:10 30.12364 -88.17259 400 ft 92 kts 93°
2026-04-12 15:10 30.12352 -88.16526 400 ft 93 kts 93°
2026-04-12 15:11 30.12361 -88.15792 400 ft 91 kts 93°
2026-04-12 15:11 30.12360 -88.15059 404 ft 93 kts 93°
2026-04-12 15:11 30.12381 -88.14321 404 ft 91 kts 93°
2026-04-12 15:11 30.12391 -88.13595 401 ft 90 kts 93°
2026-04-12 15:12 30.12367 -88.12878 408 ft 89 kts 93°
2026-04-12 15:12 30.12342 -88.12152 405 ft 92 kts 93°
2026-04-12 15:12 30.12347 -88.11405 404 ft 93 kts 93°
2026-04-12 15:12 30.12339 -88.10663 401 ft 92 kts 93°
2026-04-12 15:13 30.12331 -88.09928 404 ft 92 kts 92°
2026-04-12 15:13 30.12330 -88.09190 407 ft 92 kts 93°
2026-04-12 15:13 30.12340 -88.08445 404 ft 93 kts 93°
2026-04-12 15:13 30.12348 -88.07695 407 ft 93 kts 93°
2026-04-12 15:14 30.12255 -88.07013 406 ft 76 kts 127°
2026-04-12 15:14 30.11666 -88.07022 399 ft 108 kts 184°
2026-04-12 15:14 30.10930 -88.07141 409 ft 101 kts 182°
2026-04-12 15:14 30.10541 -88.07646 412 ft 92 kts 268°
2026-04-12 15:15 30.10588 -88.08551 401 ft 128 kts 272°
2026-04-12 15:15 30.10604 -88.09550 410 ft 123 kts 272°
2026-04-12 15:15 30.10613 -88.10535 414 ft 123 kts 272°
2026-04-12 15:15 30.10669 -88.11541 405 ft 127 kts 272°
2026-04-12 15:16 30.10720 -88.12558 399 ft 125 kts 272°
2026-04-12 15:16 30.10760 -88.13563 401 ft 126 kts 272°
2026-04-12 15:16 30.10814 -88.14571 408 ft 127 kts 272°
2026-04-12 15:16 30.10856 -88.15572 406 ft 123 kts 272°
2026-04-12 15:17 30.10904 -88.16554 399 ft 122 kts 272°
2026-04-12 15:17 30.10951 -88.17527 399 ft 121 kts 272°
2026-04-12 15:17 30.10986 -88.18490 401 ft 120 kts 272°
2026-04-12 15:17 30.10986 -88.19456 400 ft 121 kts 272°
2026-04-12 15:18 30.10984 -88.20424 399 ft 120 kts 272°
2026-04-12 15:18 30.11004 -88.21377 398 ft 118 kts 272°
2026-04-12 15:18 30.11052 -88.22319 401 ft 117 kts 272°
2026-04-12 15:18 30.11080 -88.23237 394 ft 115 kts 271°
2026-04-12 15:19 30.11106 -88.24164 400 ft 116 kts 271°
2026-04-12 15:19 30.11106 -88.25105 401 ft 119 kts 271°
2026-04-12 15:19 30.11152 -88.26069 401 ft 122 kts 271°
2026-04-12 15:19 30.11203 -88.27052 396 ft 124 kts 271°
2026-04-12 15:20 30.11232 -88.27979 453 ft 100 kts 275°
2026-04-12 15:20 30.11584 -88.28451 439 ft 84 kts 353°
2026-04-12 15:20 30.12082 -88.28539 514 ft 52 kts 16°
2026-04-12 15:20 30.12134 -88.28241 340 ft 31 kts 94°
2026-04-12 15:21 30.12026 -88.28168 331 ft 13 kts 96°
2026-04-12 15:21 30.11963 -88.28128 301 ft 5 kts 114°
2026-04-12 15:21 30.11937 -88.28097 192 ft 6 kts 106°
2026-04-12 15:21 30.11917 -88.28079 88 ft 1 kts 104°
2026-04-12 15:22 30.11925 -88.28092 43 ft 4 kts 103°
2026-04-12 15:22 30.11939 -88.28131 43 ft 7 kts 103°
2026-04-12 15:22 30.11960 -88.28186 47 ft 5 kts 103°
2026-04-12 15:22 30.11980 -88.28211 45 ft 5 kts 103°
2026-04-12 15:23 30.12007 -88.28243 47 ft 5 kts 103°
2026-04-12 15:23 30.12018 -88.28248 41 ft 2 kts 103°
2026-04-12 15:23 30.12028 -88.28253 46 ft 1 kts 103°
2026-04-12 15:23 30.12007 -88.28199 93 ft 34 kts 104°
2026-04-12 15:24 30.11656 -88.27879 415 ft 88 kts 158°
2026-04-12 15:24 30.11100 -88.27624 454 ft 87 kts 155°
2026-04-12 15:24 30.10521 -88.27388 492 ft 88 kts 155°
2026-04-12 15:24 30.09949 -88.27156 498 ft 88 kts 155°
2026-04-12 15:25 30.09462 -88.26848 497 ft 69 kts 131°
2026-04-12 15:25 30.09531 -88.26280 510 ft 82 kts 81°
2026-04-12 15:25 30.09526 -88.25637 492 ft 80 kts 92°
2026-04-12 15:25 30.09514 -88.25008 496 ft 77 kts 92°
2026-04-12 15:26 30.09497 -88.24438 427 ft 47 kts 92°
2026-04-12 15:26 30.09493 -88.24321 341 ft 1 kts 92°
2026-04-12 15:26 30.09492 -88.24318 247 ft 0 kts 92°
2026-04-12 15:26 30.09493 -88.24316 179 ft 0 kts 92°
2026-04-12 15:27 30.09492 -88.24315 111 ft 1 kts 92°
2026-04-12 15:27 30.09492 -88.24314 67 ft 1 kts 92°
2026-04-12 15:27 30.09493 -88.24313 57 ft 0 kts 92°
2026-04-12 15:27 30.09492 -88.24313 44 ft 0 kts 92°
2026-04-12 15:28 30.09466 -88.24265 86 ft 11 kts 92°
2026-04-12 15:28 30.09427 -88.24186 82 ft 12 kts 92°
2026-04-12 15:28 30.09378 -88.24112 72 ft 13 kts 92°
2026-04-12 15:28 30.09299 -88.23992 81 ft 27 kts 92°
2026-04-12 15:29 30.09262 -88.23879 273 ft 6 kts 92°
2026-04-12 15:29 30.09289 -88.23865 396 ft 2 kts 91°
2026-04-12 15:29 30.09290 -88.23856 428 ft 0 kts 91°
2026-04-12 15:29 30.09289 -88.23852 332 ft 1 kts 91°
2026-04-12 15:30 30.09289 -88.23850 269 ft 1 kts 91°
2026-04-12 15:30 30.09288 -88.23848 196 ft 0 kts 91°
2026-04-12 15:30 30.09289 -88.23846 136 ft 0 kts 91°
2026-04-12 15:30 30.09288 -88.23847 136 ft 0 kts 91°
2026-04-12 15:31 30.09289 -88.23846 124 ft 1 kts 91°
2026-04-12 15:31 30.09289 -88.23847 127 ft 1 kts 91°
2026-04-12 15:31 30.09288 -88.23847 132 ft 0 kts 91°
2026-04-12 15:31 30.09289 -88.23847 128 ft 0 kts 91°
2026-04-12 15:32 30.09288 -88.23847 125 ft 0 kts 91°
2026-04-12 15:32 30.09314 -88.23777 113 ft 10 kts 66°
2026-04-12 15:33 30.09634 -88.23724 325 ft 90 kts 344°
2026-04-12 15:33 30.10267 -88.24139 297 ft 124 kts 326°
2026-04-12 15:33 30.10898 -88.24917 255 ft 137 kts 314°
2026-04-12 15:33 30.11441 -88.25697 731 ft 121 kts 314°
2026-04-12 15:34 30.11937 -88.26501 782 ft 133 kts 305°
2026-04-12 15:34 30.12395 -88.27351 766 ft 126 kts 306°
2026-04-12 15:34 30.12858 -88.28208 772 ft 127 kts 306°
2026-04-12 15:34 30.13321 -88.29071 774 ft 127 kts 306°
2026-04-12 15:35 30.13775 -88.29916 770 ft 124 kts 306°
2026-04-12 15:35 30.14233 -88.30767 769 ft 126 kts 306°
2026-04-12 15:35 30.14697 -88.31620 769 ft 124 kts 306°
2026-04-12 15:35 30.15171 -88.32468 768 ft 127 kts 306°
2026-04-12 15:36 30.15662 -88.33316 766 ft 127 kts 306°
2026-04-12 15:36 30.16163 -88.34168 766 ft 129 kts 306°
2026-04-12 15:36 30.16669 -88.35028 767 ft 130 kts 306°
2026-04-12 15:36 30.17180 -88.35899 769 ft 130 kts 303°
2026-04-12 15:37 30.17614 -88.36796 768 ft 128 kts 300°
2026-04-12 15:37 30.18051 -88.37700 767 ft 130 kts 300°
2026-04-12 15:37 30.18489 -88.38606 768 ft 129 kts 300°
2026-04-12 15:37 30.18925 -88.39507 768 ft 128 kts 300°
2026-04-12 15:38 30.19356 -88.40404 768 ft 128 kts 300°
2026-04-12 15:38 30.19790 -88.41307 767 ft 130 kts 300°
2026-04-12 15:38 30.20225 -88.42211 768 ft 130 kts 300°
2026-04-12 15:38 30.20663 -88.43120 768 ft 127 kts 300°
2026-04-12 15:39 30.21081 -88.44024 763 ft 129 kts 298°
2026-04-12 15:39 30.21479 -88.44958 764 ft 131 kts 296°
2026-04-12 15:39 30.21870 -88.45904 766 ft 130 kts 296°
2026-04-12 15:39 30.22247 -88.46842 767 ft 127 kts 296°
2026-04-12 15:40 30.22605 -88.47770 763 ft 128 kts 296°
2026-04-12 15:40 30.22957 -88.48692 766 ft 126 kts 296°
2026-04-12 15:40 30.23199 -88.49324 766 ft 129 kts 296°
2026-04-12 15:40 30.23693 -88.50593 775 ft 129 kts 296°
2026-04-12 15:41 30.24065 -88.51537 775 ft 131 kts 296°
2026-04-12 15:41 30.24458 -88.52492 775 ft 132 kts 296°
2026-04-12 15:41 30.24863 -88.53443 776 ft 132 kts 296°
2026-04-12 15:41 30.25228 -88.54408 772 ft 132 kts 291°
2026-04-12 15:42 30.25559 -88.55403 774 ft 133 kts 289°
2026-04-12 15:42 30.25877 -88.56418 780 ft 133 kts 288°
2026-04-12 15:42 30.26177 -88.57414 776 ft 129 kts 288°
2026-04-12 15:43 30.26787 -88.59397 774 ft 128 kts 288°
2026-04-12 15:43 30.27078 -88.60380 775 ft 129 kts 288°
2026-04-12 15:43 30.27346 -88.61369 779 ft 129 kts 288°
2026-04-12 15:43 30.27616 -88.62361 776 ft 129 kts 288°
2026-04-12 15:44 30.27888 -88.63354 771 ft 129 kts 288°
2026-04-12 15:44 30.28150 -88.64324 774 ft 123 kts 288°
2026-04-12 15:44 30.28436 -88.65280 772 ft 128 kts 288°
2026-04-12 15:44 30.28742 -88.66261 770 ft 131 kts 288°
2026-04-12 15:45 30.29055 -88.67256 769 ft 132 kts 288°
2026-04-12 15:45 30.29370 -88.68260 769 ft 134 kts 288°
2026-04-12 15:45 30.29684 -88.69265 783 ft 129 kts 289°
2026-04-12 15:45 30.29991 -88.70248 773 ft 131 kts 289°
2026-04-12 15:46 30.30285 -88.71221 749 ft 127 kts 289°
2026-04-12 15:46 30.30823 -88.73134 744 ft 124 kts 289°
2026-04-12 15:46 30.31112 -88.74064 744 ft 123 kts 291°
2026-04-12 15:47 30.31551 -88.74953 753 ft 129 kts 301°
2026-04-12 15:47 30.31996 -88.75830 778 ft 126 kts 301°
2026-04-12 15:47 30.32427 -88.76693 785 ft 125 kts 301°
2026-04-12 15:47 30.32863 -88.77573 785 ft 127 kts 301°
2026-04-12 15:48 30.33309 -88.78461 785 ft 128 kts 301°
2026-04-12 15:48 30.33753 -88.79345 784 ft 123 kts 301°
2026-04-12 15:48 30.34181 -88.80207 783 ft 124 kts 301°
2026-04-12 15:48 30.34618 -88.81078 783 ft 126 kts 301°
2026-04-12 15:49 30.35050 -88.81942 782 ft 124 kts 301°
2026-04-12 15:49 30.35476 -88.82800 781 ft 123 kts 301°
2026-04-12 15:49 30.35842 -88.83680 788 ft 116 kts 278°
2026-04-12 15:49 30.36012 -88.84575 775 ft 117 kts 292°
2026-04-12 15:50 30.36399 -88.85391 795 ft 113 kts 310°
2026-04-12 15:50 30.36860 -88.86134 785 ft 114 kts 306°
2026-04-12 15:50 30.37315 -88.86910 781 ft 119 kts 306°
2026-04-12 15:50 30.37797 -88.87714 780 ft 124 kts 306°
2026-04-12 15:51 30.38291 -88.88542 782 ft 127 kts 306°
2026-04-12 15:51 30.38810 -88.89387 780 ft 130 kts 306°
2026-04-12 15:51 30.39350 -88.90198 802 ft 118 kts 294°
2026-04-12 15:51 30.39411 -88.90958 771 ft 89 kts 203°
2026-04-12 15:52 30.38880 -88.90997 765 ft 100 kts 131°
2026-04-12 15:52 30.38393 -88.90454 793 ft 96 kts 136°
2026-04-12 15:52 30.37922 -88.89878 767 ft 104 kts 127°
2026-04-12 15:52 30.37800 -88.89016 771 ft 116 kts 83°
2026-04-12 15:53 30.37874 -88.88353 794 ft 62 kts 94°
2026-04-12 15:53 30.37791 -88.87815 792 ft 72 kts 95°
2026-04-12 15:53 30.37843 -88.87233 797 ft 77 kts 27°
2026-04-12 15:53 30.38458 -88.87330 757 ft 123 kts 331°
2026-04-12 15:54 30.39240 -88.87996 805 ft 132 kts 324°
2026-04-12 15:54 30.39908 -88.88622 762 ft 122 kts 321°
2026-04-12 15:54 30.40585 -88.89189 813 ft 124 kts 334°
2026-04-12 15:54 30.41439 -88.89596 630 ft 133 kts 341°
2026-04-12 15:55 30.41984 -88.90300 496 ft 117 kts 284°
2026-04-12 15:55 30.42170 -88.91160 460 ft 97 kts 264°
2026-04-12 15:55 30.41902 -88.91722 422 ft 82 kts 205°
2026-04-12 15:55 30.41503 -88.92081 209 ft 60 kts 207°
2026-04-12 15:56 30.41264 -88.92282 96 ft 20 kts 198°
2026-04-12 15:56 30.41157 -88.92352 48 ft 14 kts 171°
2026-04-12 15:56 30.41096 -88.92323 33 ft 4 kts 121°
2026-04-12 15:56 30.41089 -88.92311 28 ft 0 kts 123°
2026-04-12 15:57 30.41073 -88.92289 29 ft 6 kts 128°
2026-04-12 15:57 30.41049 -88.92244 30 ft 10 kts 96°
2026-04-12 15:57 30.41091 -88.92193 29 ft 7 kts 34°
2026-04-12 15:57 30.41119 -88.92172 28 ft 3 kts 34°
2026-04-12 15:58 30.41158 -88.92140 28 ft 11 kts 38°
2026-04-12 15:58 30.41212 -88.92094 28 ft 7 kts 34°
2026-04-12 15:58 30.41254 -88.92062 27 ft 9 kts 34°
2026-04-12 15:58 30.41289 -88.91996 27 ft 9 kts 70°
2026-04-12 15:59 30.41304 -88.91942 26 ft 5 kts 69°
2026-04-12 15:59 30.41311 -88.91929 25 ft 0 kts 40°
2026-04-12 16:12 30.41316 -88.91925 28 ft 4 kts 40°
2026-04-12 16:12 30.41348 -88.91900 24 ft 7 kts 11°
2026-04-12 16:13 30.41406 -88.91897 22 ft 10 kts
2026-04-12 16:13 30.41462 -88.91888 20 ft 9 kts 15°
2026-04-12 16:13 30.41521 -88.91886 18 ft 8 kts 349°
2026-04-12 16:13 30.41577 -88.91899 17 ft 0 kts 349°
2026-04-12 16:14 30.41578 -88.91900 24 ft 1 kts 349°
2026-04-12 16:14 30.41613 -88.91929 27 ft 17 kts 268°
2026-04-12 16:14 30.41370 -88.92164 142 ft 82 kts 212°
2026-04-12 16:15 30.41035 -88.91969 355 ft 86 kts 77°
2026-04-12 16:15 30.41366 -88.91247 575 ft 101 kts 66°
2026-04-12 16:15 30.41757 -88.90529 528 ft 106 kts 66°
2026-04-12 16:15 30.42191 -88.89859 498 ft 103 kts 67°
2026-04-12 16:16 30.42561 -88.89172 522 ft 101 kts 68°
2026-04-12 16:16 30.42952 -88.88458 516 ft 104 kts 68°
2026-04-12 16:16 30.43341 -88.87645 511 ft 125 kts 68°
2026-04-12 16:16 30.43741 -88.86747 510 ft 119 kts 69°
2026-04-12 16:17 30.44125 -88.86041 519 ft 105 kts 68°
2026-04-12 16:17 30.44516 -88.85332 513 ft 102 kts 67°
2026-04-12 16:17 30.44894 -88.84624 523 ft 105 kts 66°
2026-04-12 16:17 30.45247 -88.83883 514 ft 106 kts 72°
2026-04-12 16:18 30.45544 -88.83183 524 ft 100 kts 75°
2026-04-12 16:18 30.45756 -88.82673 512 ft 101 kts 75°
2026-04-12 16:18 30.46096 -88.81917 522 ft 107 kts 75°
2026-04-12 16:18 30.46410 -88.81159 519 ft 105 kts 74°
2026-04-12 16:19 30.46711 -88.80385 514 ft 107 kts 74°
2026-04-12 16:19 30.47059 -88.79626 510 ft 107 kts 75°
2026-04-12 16:19 30.47371 -88.78869 510 ft 105 kts 75°
2026-04-12 16:19 30.47678 -88.78086 510 ft 107 kts 75°
2026-04-12 16:20 30.47982 -88.77320 515 ft 104 kts 74°
2026-04-12 16:20 30.48276 -88.76550 511 ft 103 kts 75°
2026-04-12 16:20 30.48581 -88.75787 509 ft 104 kts 75°
2026-04-12 16:20 30.48901 -88.75050 510 ft 103 kts 74°
2026-04-12 16:21 30.49217 -88.74301 511 ft 103 kts 74°
2026-04-12 16:21 30.49505 -88.73541 522 ft 100 kts 74°
2026-04-12 16:21 30.49782 -88.72720 527 ft 105 kts 75°
2026-04-12 16:21 30.50092 -88.71947 533 ft 104 kts 74°
2026-04-12 16:22 30.50430 -88.71135 533 ft 114 kts 73°
2026-04-12 16:22 30.50763 -88.70328 533 ft 108 kts 74°
2026-04-12 16:22 30.51065 -88.69540 540 ft 110 kts 74°
2026-04-12 16:22 30.51384 -88.68748 535 ft 106 kts 74°
2026-04-12 16:23 30.51707 -88.67959 536 ft 105 kts 74°
2026-04-12 16:23 30.51980 -88.67211 532 ft 99 kts 74°
2026-04-12 16:23 30.52288 -88.66415 542 ft 111 kts 74°
2026-04-12 16:23 30.52597 -88.65654 544 ft 104 kts 74°
2026-04-12 16:24 30.52917 -88.64867 540 ft 103 kts 74°
2026-04-12 16:24 30.53245 -88.64085 542 ft 107 kts 74°
2026-04-12 16:24 30.53573 -88.63260 541 ft 114 kts 74°
2026-04-12 16:24 30.53887 -88.62412 542 ft 114 kts 74°
2026-04-12 16:25 30.54187 -88.61605 536 ft 112 kts 75°
2026-04-12 16:25 30.54501 -88.60818 542 ft 106 kts 75°
2026-04-12 16:25 30.54815 -88.60010 545 ft 107 kts 74°
2026-04-12 16:25 30.55129 -88.59210 543 ft 108 kts 75°
2026-04-12 16:26 30.55460 -88.58422 540 ft 113 kts 74°
2026-04-12 16:26 30.55747 -88.57569 545 ft 112 kts 75°
2026-04-12 16:26 30.56041 -88.56741 544 ft 102 kts 74°
2026-04-12 16:26 30.56373 -88.55972 539 ft 106 kts 74°
2026-04-12 16:27 30.56712 -88.55162 541 ft 118 kts 73°
2026-04-12 16:27 30.57006 -88.54341 541 ft 109 kts 74°
2026-04-12 16:27 30.57303 -88.53549 546 ft 108 kts 74°
2026-04-12 16:27 30.57629 -88.52782 547 ft 109 kts 74°
2026-04-12 16:28 30.57982 -88.52032 539 ft 110 kts 73°
2026-04-12 16:28 30.58307 -88.51257 540 ft 106 kts 73°
2026-04-12 16:28 30.58615 -88.50489 541 ft 99 kts 74°
2026-04-12 16:28 30.58934 -88.49766 535 ft 100 kts 74°
2026-04-12 16:29 30.59251 -88.48997 538 ft 112 kts 74°
2026-04-12 16:29 30.59572 -88.48220 539 ft 102 kts 74°
2026-04-12 16:29 30.59874 -88.47470 539 ft 109 kts 72°
2026-04-12 16:29 30.60132 -88.46674 543 ft 104 kts 74°
2026-04-12 16:30 30.60408 -88.45901 537 ft 104 kts 74°
2026-04-12 16:30 30.60733 -88.45146 537 ft 107 kts 74°
2026-04-12 16:30 30.61005 -88.44373 437 ft 99 kts 74°
2026-04-12 16:30 30.61289 -88.43652 448 ft 100 kts 74°
2026-04-12 16:31 30.61579 -88.42865 466 ft 105 kts 75°
2026-04-12 16:31 30.61890 -88.42095 486 ft 105 kts 74°
2026-04-12 16:31 30.62200 -88.41307 476 ft 106 kts 75°
2026-04-12 16:31 30.62540 -88.40526 486 ft 113 kts 74°
2026-04-12 16:32 30.62864 -88.39746 482 ft 111 kts 74°
2026-04-12 16:32 30.63139 -88.38964 480 ft 111 kts 76°
2026-04-12 16:32 30.63478 -88.38197 480 ft 111 kts 73°
2026-04-12 16:32 30.63779 -88.37433 496 ft 97 kts 74°
2026-04-12 16:33 30.64103 -88.36671 505 ft 105 kts 71°
2026-04-12 16:33 30.64446 -88.35938 480 ft 103 kts 70°
2026-04-12 16:33 30.64791 -88.35194 486 ft 108 kts 70°
2026-04-12 16:33 30.65113 -88.34390 490 ft 108 kts 70°
2026-04-12 16:34 30.65461 -88.33646 493 ft 101 kts 70°
2026-04-12 16:34 30.65803 -88.32910 497 ft 101 kts 70°
2026-04-12 16:34 30.66151 -88.32124 493 ft 108 kts 70°
2026-04-12 16:34 30.66501 -88.31343 490 ft 110 kts 70°
2026-04-12 16:35 30.66856 -88.30589 489 ft 108 kts 70°
2026-04-12 16:35 30.67237 -88.29894 715 ft 96 kts 71°
2026-04-12 16:35 30.67573 -88.29238 752 ft 89 kts 66°
2026-04-12 16:35 30.67872 -88.28635 651 ft 87 kts 69°
2026-04-12 16:36 30.68123 -88.28055 747 ft 76 kts 78°
2026-04-12 16:36 30.68355 -88.27417 717 ft 98 kts 77°
2026-04-12 16:36 30.68712 -88.26666 844 ft 112 kts 71°
2026-04-12 16:36 30.69013 -88.25878 647 ft 93 kts 79°
2026-04-12 16:37 30.69189 -88.25224 585 ft 82 kts 83°
2026-04-12 16:37 30.69316 -88.24636 325 ft 61 kts 82°
2026-04-12 16:37 30.69333 -88.24411 267 ft 9 kts 72°
2026-04-12 16:37 30.69343 -88.24351 219 ft 2 kts 71°
2026-04-12 16:38 30.69354 -88.24315 217 ft 6 kts 70°
2026-04-12 16:38 30.69377 -88.24299 218 ft 5 kts
2026-04-12 16:38 30.69392 -88.24298 218 ft 0 kts 357°
2026-04-12 16:41 30.69391 -88.24298 218 ft 0 kts 357°
2026-04-12 16:41 30.69392 -88.24298 218 ft 0 kts 357°
2026-04-12 16:42 30.69391 -88.24298 218 ft 0 kts 357°